Terminal Aerodrome Forecast
Issued by NWS

Home | Current Version | Previous Version | Graphics & Text | Print | Product List | Glossary On
Versions: 1 2 3 4 5 6 7 8 9 10 11 12 13 14 15 16 17 18 19 20 21 22 23 24 25 26
000
FTUS43 KABR 262000 AAB
TAFATY
TAF AMD
KATY 262018Z 2620/2718 36014KT P6SM SCT035
     FM270100 03007KT P6SM BKN200
     FM271500 15008KT P6SM OVC060=

USA.gov is the U.S. government's official web portal to all federal, state and local government web resources and services.